Wind_Speed
11 10 9 7 6 5 3 2 2 2 3 4 5 5 5 5 6 7 7 7 8 8 9 7 6 5 6 4 3 3 5 5 3 2 1 1 2 2 1 1 1 2 2 2 5 7 8 9 9 9 9 8 9 9 9 9 9 9 9 9 8 8 8 8 8 7 8 8 8 7 7 7 6 6 5 4 3 3 3 4 4 5 4 4 4
10 10 9 7 6 5 3 3 2 3 4 5 6 6 6 6 6 7 8 8 9 9 9 8 6 6 6 6 4 4 5 5 4 3 3 3 2 1 0 1 1 2 3 2 4 7 9 9 8 8 9 9 9 9 9 9 9 9 9 9 8 8 8 8 8 8 8 8 9 8 8 8 7 6 5 5 4 3 3 4 4 5 5 5 5
11 11 9 8 7 6 4 4 3 4 5 6 7 7 7 7 8 8 9 8 9 9 8 7 7 6 5 5 6 5 6 7 5 3 3 5 4 2 1 2 2 3 3 3 3 6 9 8 7 8 9 9 10 10 10 10 9 9 10 9 9 9 8 9 9 8 8 8 9 8 8 8 8 8 7 6 5 4 4 4 4 5 5 5 6
12 11 10 9 8 6 5 5 4 5 6 7 8 8 8 8 9 9 9 8 8 8 6 6 6 5 4 4 6 6 6 5 4 3 3 5 6 4 3 4 3 3 3 2 2 3 6 7 6 8 9 10 10 10 10 10 10 10 10 11 11 10 10 9 9 9 9 9 9 8 8 8 8 8 8 7 7 6 5 5 5 5 6 6 6
12 11 10 9 8 7 6 5 5 6 7 8 8 9 9 9 10 10 10 8 8 7 6 6 5 5 5 5 6 5 4 3 3 5 6 6 6 6 5 5 4 4 3 2 2 2 4 5 6 7 9 9 10 11 10 10 11 11 11 11 11 11 11 11 11 10 9 9 9 9 9 8 8 8 8 8 8 7 7 6 6 6 7 7 6
13 11 11 9 8 7 6 5 5 7 7 8 9 9 10 10 11 11 10 9 9 9 8 7 6 7 6 5 3 3 4 5 6 7 8 6 5 7 6 6 6 4 3 3 3 2 3 4 5 6 7 6 8 10 9 10 12 12 12 11 11 12 12 12 11 10 11 10 10 10 10 9 9 9 9 9 9 9 8 8 7 7 7 8 8
14 12 12 10 9 8 6 6 7 8 8 9 10 10 11 12 12 12 11 11 11 10 9 8 8 8 6 4 2 3 4 5 6 6 7 5 4 6 6 6 6 5 3 3 2 1 2 3 4 5 5 4 5 7 7 10 12 13 13 12 12 13 12 12 12 11 13 12 11 11 11 10 10 9 9 9 10 9 9 9 9 9 9 9 9
14 13 13 11 10 8 7 7 8 9 10 10 11 12 12 13 13 13 12 11 12 11 10 9 8 8 6 3 2 4 4 2 3 3 4 3 2 4 5 5 5 4 2 2 2 1 1 2 3 4 4 3 4 5 6 9 12 12 13 13 13 13 12 12 11 11 13 13 12 12 12 12 11 10 10 9 10 10 10 9 9 9 10 10 10
14 13 12 11 10 9 8 8 10 11 11 11 12 12 13 14 14 13 12 11 12 11 10 9 8 8 6 3 3 5 5 3 2 1 1 1 1 2 3 3 3 2 1 2 3 2 0 1 2 4 3 3 4 4 4 6 9 11 13 13 13 13 13 12 11 12 13 13 12 12 12 13 13 12 11 11 11 11 10 10 9 9 10 10 10
13 12 12 11 11 10 9 9 10 12 12 12 13 13 14 14 13 12 11 11 12 11 10 8 7 8 7 5 5 6 5 3 2 1 0 2 2 2 1 1 2 1 2 2 3 2 2 2 2 3 3 3 4 4 5 5 5 8 10 11 11 12 13 13 12 12 12 12 12 12 12 13 13 12 12 13 13 13 12 11 11 11 11 11 11
13 12 12 11 11 11 10 9 11 12 13 13 14 14 14 13 12 11 10 11 12 11 8 7 8 9 9 8 7 7 7 5 3 3 2 2 3 3 2 1 2 0 1 2 2 2 2 2 2 3 4 4 4 5 5 5 4 5 7 8 9 11 13 12 12 13 13 12 12 12 12 12 12 12 13 13 13 14 13 13 13 12 12 13 12
14 13 12 12 12 11 10 10 11 12 13 13 14 14 14 13 11 10 10 12 12 11 10 10 9 9 10 10 9 9 8 6 4 4 5 4 4 4 4 4 3 2 1 1 2 1 2 2 2 3 4 4 4 4 5 6 5 5 5 6 7 9 10 11 12 12 13 13 13 13 13 13 13 13 14 14 14 14 13 14 14 12 13 14 13
15 14 13 13 12 12 12 12 12 12 13 13 14 15 14 13 11 10 11 13 13 13 12 11 10 9 10 10 10 10 8 6 5 6 6 5 4 5 5 4 3 2 2 2 2 2 2 2 2 2 3 3 3 4 4 5 5 5 6 6 7 7 7 9 10 10 11 12 13 13 13 13 14 14 14 14 15 14 13 14 14 13 14 15 15
16 15 14 13 13 13 13 13 13 13 13 14 14 15 15 13 11 11 12 13 14 14 12 10 9 8 8 9 10 11 9 7 6 7 6 5 5 4 4 3 2 2 3 3 3 3 3 2 1 2 2 2 2 3 3 4 4 5 5 6 6 5 5 6 7 8 9 10 10 11 11 11 12 13 14 15 15 13 12 13 14 14 15 15 16
17 16 15 14 14 14 14 13 13 14 14 15 15 15 15 13 12 12 13 14 14 13 11 10 8 7 6 7 8 9 9 7 7 8 7 5 4 3 2 1 2 2 3 3 4 3 3 2 2 2 3 2 2 2 3 3 3 3 3 3 3 3 3 3 4 6 6 7 8 9 9 9 10 11 12 12 11 10 10 10 12 13 13 14 14
18 17 17 16 15 14 14 14 14 14 15 16 16 16 15 13 12 13 13 14 13 12 10 10 9 7 5 5 6 7 7 7 9 9 8 6 4 3 2 1 2 2 2 3 4 4 4 3 3 2 2 3 3 2 2 2 2 3 3 2 2 2 2 2 3 3 4 5 6 6 7 7 8 9 9 9 9 9 9 8 9 10 10 11 11
19 18 18 17 16 15 14 14 14 15 16 16 16 16 15 13 13 13 13 12 11 11 10 9 10 9 6 5 5 5 6 7 9 9 9 9 7 6 4 2 0 0 2 4 5 6 7 7 6 5 4 3 3 3 2 2 2 3 3 3 3 3 3 3 3 3 3 4 4 5 5 6 7 8 8 9 9 9 9 8 9 9 10 10 10
20 19 19 18 17 16 15 15 15 16 17 17 17 16 15 13 13 13 13 11 10 10 11 10 10 10 9 7 6 5 5 7 8 8 9 10 9 8 6 4 3 2 3 4 5 7 8 8 7 6 5 4 3 2 2 2 3 3 4 4 4 4 4 3 3 3 4 4 5 5 6 6 7 7 7 8 8 8 8 8 9 9 10 10 10
20 20 20 19 18 17 17 16 16 16 17 18 17 15 14 13 13 13 12 11 10 11 11 11 11 11 10 10 9 7 5 6 8 8 8 11 11 10 8 6 5 4 4 4 5 6 6 6 6 5 5 4 3 2 1 2 3 3 4 5 5 5 5 4 5 5 5 5 6 7 7 7 7 8 8 8 8 8 7 7 7 8 8 8 9
21 21 20 20 19 19 18 17 17 17 18 18 17 15 14 13 13 13 12 10 10 11 12 12 11 10 10 10 10 9 7 6 7 8 7 11 12 11 9 8 8 7 6 5 4 4 3 5 5 5 5 5 5 4 4 4 4 5 5 5 5 5 5 5 5 6 6 6 7 7 8 8 8 8 9 9 9 9 9 9 9 9 9 9 9
22 22 21 21 21 20 19 19 18 18 18 18 16 15 14 13 13 13 11 10 10 11 13 13 12 11 10 10 11 10 8 6 8 9 8 8 11 11 10 10 10 8 6 6 5 4 2 3 4 5 6 6 6 6 6 6 6 5 5 5 4 4 5 5 6 6 6 6 7 7 7 8 8 9 9 9 9 9 10 10 10 11 11 11 11
23 23 22 22 22 21 21 20 19 19 19 18 16 15 14 13 12 12 10 9 10 12 13 13 13 12 11 11 11 10 9 8 10 11 10 9 9 10 11 11 10 8 6 6 5 4 3 1 2 4 5 6 6 5 5 5 4 4 4 3 3 3 3 4 5 5 6 7 7 8 8 8 8 8 8 8 9 9 9 10 10 10 11 11 12
24 24 23 23 23 23 22 21 20 20 19 18 17 15 14 13 12 12 11 9 10 11 13 14 13 13 13 12 11 11 10 10 10 11 11 11 11 11 11 11 10 8 7 6 6 6 5 3 1 1 2 3 4 3 3 2 2 2 2 2 2 3 3 4 5 6 7 7 8 9 9 10 9 9 8 8 9 9 9 10 10 10 10 11 11
26 25 25 24 24 24 23 22 21 20 19 18 17 16 15 14 13 13 12 11 11 11 13 14 13 13 12 11 10 10 11 11 10 9 10 11 12 11 10 10 9 8 8 8 8 8 7 6 4 3 2 2 2 3 3 2 2 2 2 2 3 4 5 6 6 7 7 8 9 10 10 11 11 11 10 10 10 10 11 11 11 12 12 12 12
28 27 26 25 24 25 24 23 22 20 19 18 17 16 16 15 14 14 13 12 12 12 12 13 13 13 12 11 10 10 10 11 11 10 9 9 11 11 9 9 8 7 7 8 8 8 8 8 7 7 7 6 5 5 5 5 4 4 4 4 4 5 6 7 8 7 8 8 9 10 10 10 11 11 11 11 11 11 11 12 13 13 14 14 14
29 27 26 25 25 25 25 24 23 21 19 18 18 17 17 16 15 15 14 13 13 14 13 12 13 14 13 13 12 11 11 12 12 11 10 9 10 10 9 8 7 7 7 7 8 9 9 9 9 9 9 10 10 9 8 7 7 7 7 7 7 7 7 9 9 9 9 9 9 10 11 11 11 11 12 12 12 12 12 13 14 15 15 16 16
30 28 27 26 26 26 26 25 24 22 19 19 19 18 18 17 16 15 14 14 15 15 15 14 14 14 14 14 14 13 12 13 13 12 12 10 10 10 9 8 7 7 7 8 8 9 9 10 10 11 11 12 12 12 11 9 9 9 10 10 10 9 9 10 11 12 11 11 11 12 12 12 13 13 13 14 14 14 14 15 15 16 17 17 17
30 29 28 27 26 26 27 26 24 22 20 20 20 20 19 18 17 16 15 15 16 16 16 15 15 15 15 15 15 14 14 14 14 13 13 13 12 11 11 10 9 8 8 9 9 9 9 9 11 12 13 14 14 13 12 10 10 11 12 12 12 11 10 11 13 14 14 15 15 15 15 15 15 15 15 15 16 16 16 16 16 16 16 17 17
31 30 29 28 27 27 27 27 25 22 20 20 21 21 21 20 18 17 16 15 16 16 16 16 15 15 16 16 16 15 15 16 16 15 15 14 14 14 14 13 11 10 9 10 9 9 9 9 10 11 12 13 13 13 12 12 12 12 12 12 12 12 12 13 15 16 17 17 18 18 18 18 18 18 18 18 18 18 18 18 17 17 17 16 17
32 31 29 29 28 28 28 27 25 23 21 21 22 22 22 22 20 19 17 16 17 17 16 16 16 16 17 17 16 16 16 17 18 17 17 16 15 15 15 14 13 12 11 11 11 10 10 9 9 10 11 12 12 12 12 12 12 11 11 11 11 12 13 15 16 18 19 19 19 19 20 20 20 20 20 20 20 20 20 19 19 19 18 18 18
32 31 30 29 29 28 28 28 26 24 22 22 23 23 24 24 22 21 19 18 18 17 17 17 17 17 17 17 17 17 17 18 18 19 18 18 17 16 16 15 14 14 13 12 13 12 12 11 9 9 10 11 12 12 12 12 11 11 10 10 10 12 14 15 17 18 19 20 20 20 21 21 21 22 22 22 22 22 21 21 20 20 20 20 19
33 32 31 30 29 29 29 28 27 26 24 23 24 25 25 25 24 23 21 20 20 19 18 17 18 18 18 18 18 18 18 18 19 19 19 20 19 18 17 16 15 14 14 14 16 15 14 13 11 10 10 11 12 12 12 12 11 11 10 9 11 13 14 15 16 17 18 19 19 20 21 22 23 23 23 23 23 22 22 21 21 21 21 21 21
34 33 32 31 30 30 30 30 29 28 26 24 25 26 26 26 26 25 24 23 22 21 19 19 19 19 19 19 19 18 19 19 20 20 20 20 20 20 19 18 17 17 17 17 18 18 16 14 12 11 11 12 12 11 11 11 11 10 9 10 11 13 13 14 14 15 16 17 18 19 21 22 23 22 21 21 21 21 21 20 20 20 20 21 21
34 34 33 32 32 32 31 31 30 29 28 26 26 27 28 28 27 27 26 25 24 23 22 21 21 21 21 20 20 19 20 20 21 21 21 21 21 21 20 20 19 19 19 19 19 19 18 15 13 12 12 12 11 10 10 11 10 10 10 11 12 12 13 14 15 15 15 16 17 18 19 19 20 19 18 18 18 18 18 18 17 17 18 18 19
34 35 35 34 33 33 33 32 31 31 30 28 28 28 28 29 29 28 28 27 26 25 24 23 23 22 22 21 21 21 21 21 22 22 22 22 21 21 20 20 19 18 18 18 19 18 18 16 14 13 12 12 11 10 11 11 10 10 11 11 11 13 15 16 17 17 17 17 18 17 16 16 16 16 16 16 16 16 17 17 17 17 17 17 17
34 35 35 35 35 35 35 34 33 33 32 30 30 30 29 30 30 29 29 28 27 27 26 25 24 24 23 23 22 22 23 23 23 22 22 22 21 20 20 20 19 18 17 17 18 18 17 17 15 14 13 13 12 12 12 11 10 11 12 11 13 15 17 18 19 19 19 19 18 17 16 15 15 15 16 16 16 16 17 17 17 17 18 19 19
35 36 36 37 36 36 36 35 35 34 34 32 32 31 30 30 30 30 30 29 29 28 27 27 26 26 25 24 23 23 24 24 25 24 22 22 21 20 20 20 20 19 18 18 18 17 17 18 17 15 15 15 14 13 13 12 12 12 12 13 15 17 18 20 21 21 21 20 18 17 16 14 15 15 16 16 17 17 18 18 18 19 20 21 22
36 37 37 38 38 38 37 36 35 35 35 34 34 32 31 30 30 30 30 30 29 29 29 28 28 27 26 26 25 24 24 25 25 25 23 23 22 21 20 20 20 20 20 20 19 18 18 18 18 17 17 17 16 15 14 14 14 14 14 15 16 17 19 21 22 23 22 20 18 17 16 15 15 15 16 17 18 19 19 20 21 22 22 22 23
37 38 39 39 39 38 38 37 36 36 35 36 35 33 32 31 31 30 30 30 30 29 30 30 29 28 27 26 26 26 26 25 25 25 24 24 23 22 21 20 20 20 21 21 20 19 19 20 20 20 19 17 17 16 15 15 15 16 16 17 19 19 20 22 23 24 23 21 19 17 16 15 15 15 16 17 18 19 20 21 22 23 23 23 24
38 39 39 40 39 39 39 38 37 37 36 37 36 35 33 32 31 30 29 29 29 30 31 31 30 30 28 27 27 27 27 26 25 25 25 24 24 24 23 22 21 21 21 21 21 20 20 21 21 21 20 19 18 17 16 15 15 16 16 18 21 23 23 24 24 24 23 21 19 18 16 16 16 16 17 18 19 20 20 20 21 21 22 23 23
39 39 40 40 40 40 40 39 39 38 38 38 37 35 33 32 31 30 29 29 30 30 31 31 31 31 29 29 29 28 27 27 26 26 25 24 24 24 24 23 22 21 20 20 21 20 20 21 22 22 21 20 19 17 17 16 16 18 18 18 21 24 26 26 25 23 22 20 18 18 17 17 18 18 20 21 22 22 21 20 21 21 21 22 22
40 40 40 40 41 42 41 40 40 40 40 39 37 35 33 32 31 30 29 29 30 30 31 31 31 30 29 30 30 30 30 29 28 27 26 25 24 24 24 24 23 21 20 20 20 20 20 21 22 21 21 21 19 18 18 19 20 21 20 20 22 24 25 26 25 23 21 19 19 18 18 18 21 22 22 23 23 22 21 21 21 22 23 23 23
41 41 41 42 42 43 43 42 41 41 41 39 36 34 33 32 31 29 29 29 29 30 30 30 29 28 28 29 30 31 34 33 29 27 26 24 24 23 23 23 23 22 20 20 20 20 20 22 21 20 20 21 20 19 21 22 23 22 20 21 24 25 24 25 26 23 21 20 21 22 21 21 23 26 25 23 22 21 21 21 22 23 24 25 25
42 43 43 43 43 44 44 43 43 43 42 39 36 34 33 32 30 29 28 28 29 29 29 27 26 26 26 27 28 30 35 35 30 27 27 24 22 22 23 23 23 22 21 20 20 21 20 20 20 20 21 21 21 22 23 24 25 24 21 21 24 25 24 23 24 23 21 21 23 24 25 23 24 26 25 23 22 22 23 23 23 24 25 25 26
43 44 44 44 44 45 45 45 45 44 43 40 37 35 34 31 30 29 28 28 28 29 27 24 23 23 25 28 29 30 35 36 29 25 26 25 21 20 21 22 22 23 22 21 21 21 20 20 22 22 22 23 23 23 24 26 27 25 22 22 23 25 23 21 21 21 21 22 23 25 27 25 23 25 25 24 24 24 24 24 24 25 27 27 28
45 46 46 45 45 45 46 45 45 45 43 40 38 37 34 32 30 29 27 28 29 27 25 23 23 24 28 30 28 28 32 33 28 24 23 23 22 20 20 21 22 23 24 22 21 21 21 21 22 23 23 23 23 23 24 26 25 23 22 22 23 23 22 20 20 21 21 22 23 25 27 25 22 24 26 25 25 26 26 26 26 27 28 29 28
47 46 46 46 46 46 46 45 46 46 44 41 39 37 35 33 31 29 28 29 28 26 26 27 26 27 30 29 27 27 29 28 26 22 18 18 20 20 18 19 21 22 23 22 20 21 21 20 21 22 24 23 22 22 23 22 20 20 21 22 21 21 20 20 20 20 20 21 21 23 25 24 22 25 27 26 26 27 27 27 27 27 26 25 23
48 48 47 47 47 47 46 46 46 46 44 42 40 38 35 34 32 30 29 28 25 25 28 30 28 28 29 27 26 27 27 26 24 18 14 15 18 17 16 17 18 21 21 20 19 19 18 18 20 23 25 24 21 18 17 17 17 19 20 20 19 18 19 19 20 20 19 19 19 19 22 23 23 25 27 26 27 27 26 25 24 23 21 19 19
50 50 50 49 48 48 47 47 47 46 44 42 40 38 36 36 34 31 29 26 24 26 29 30 29 28 26 25 25 25 25 25 21 14 11 13 16 15 15 16 18 19 20 19 17 16 16 18 21 22 22 20 17 14 14 16 17 17 17 17 17 17 18 20 20 19 17 17 16 16 20 23 24 26 28 27 26 26 25 23 22 20 20 19 19
50 50 50 49 49 49 49 48 47 46 44 42 40 38 37 37 35 31 27 25 25 27 29 29 28 27 25 24 23 23 23 21 17 13 12 14 15 15 15 16 18 19 18 17 15 15 17 19 19 17 16 14 13 13 13 14 15 15 15 16 16 17 18 18 17 16 16 15 14 17 22 25 25 26 27 28 28 27 24 23 23 22 23 23 23
49 49 49 50 51 51 50 50 48 47 45 42 40 39 39 38 34 30 27 27 28 28 28 28 27 25 24 22 21 21 20 18 15 13 13 14 16 15 14 16 18 17 15 13 14 16 17 16 15 13 12 12 13 13 13 13 13 14 15 16 16 16 15 14 14 14 15 15 15 19 24 26 26 26 25 26 28 28 26 25 25 26 26 26 27
Wind_Direction
203 205 206 197 194 199 205 216 229 290 312 325 320 314 307 298 301 296 282 275 274 272 273 280 275 236 220 240 253 203 175 160 152 144 124 117 120 120 92 46 38 24 354 264 235 230 234 229 218 211 210 212 215 215 218 221 220 217 216 217 219 219 218 215 211 210 211 216 219 218 219 219 219 219 218 223 227 243 247 244 243 239 237 236 240
202 204 206 197 200 205 211 234 263 299 312 322 316 311 303 297 299 294 282 277 283 280 268 266 261 230 224 246 250 214 200 202 192 193 223 210 183 132 27 359 24 14 355 311 251 234 239 237 225 221 217 215 218 216 216 219 222 224 222 217 218 220 220 221 218 217 217 220 223 224 229 231 233 233 232 235 233 232 240 239 239 242 244 246 252
206 208 207 204 212 218 228 250 277 302 311 319 316 310 306 303 297 289 285 282 287 285 264 247 238 231 246 255 239 231 251 251 222 213 247 230 224 216 236 290 319 350 345 317 269 238 242 242 228 228 225 219 222 221 219 220 220 225 226 221 221 219 220 222 220 220 224 226 226 227 235 238 241 244 243 249 250 245 243 242 240 241 244 251 264
213 215 215 215 225 230 241 258 285 300 306 314 312 309 306 303 293 287 286 280 277 272 244 226 233 240 255 252 239 243 268 271 240 252 302 271 249 241 243 270 290 324 332 317 297 251 250 251 235 232 228 222 226 226 221 223 223 223 224 224 223 220 218 221 220 220 224 229 232 230 235 239 243 248 247 249 253 253 251 253 252 249 248 252 262
216 222 226 229 235 239 251 267 287 295 300 304 304 304 299 294 289 287 286 272 260 251 227 224 244 247 252 265 258 248 250 261 266 282 309 299 258 249 252 260 269 291 305 309 303 265 252 249 234 233 233 229 232 232 225 226 229 229 227 227 229 226 222 222 219 219 221 225 232 233 234 235 238 245 247 248 251 254 254 257 260 261 262 263 265
220 228 235 240 245 249 262 276 289 291 293 295 297 296 289 287 287 287 284 266 252 244 232 236 247 246 265 292 284 263 260 264 276 285 301 301 254 247 251 249 254 269 287 309 298 256 242 248 238 238 242 236 236 236 230 230 235 237 234 228 232 234 230 228 223 223 226 224 230 235 236 237 238 242 246 246 247 250 253 255 256 259 267 270 273
226 234 240 245 250 254 268 282 291 291 292 292 291 291 286 285 285 287 283 263 250 247 242 247 248 245 271 304 296 296 295 272 274 287 300 297 246 240 245 244 246 251 275 324 323 249 215 246 247 243 245 242 244 245 238 234 235 239 240 233 233 236 236 237 230 229 235 233 233 238 240 242 243 246 250 253 253 253 254 255 256 259 263 267 271
231 237 242 246 250 256 270 284 290 291 292 290 288 287 284 284 285 287 282 260 248 248 250 257 250 244 268 304 286 298 314 303 289 302 305 286 222 213 226 237 238 240 274 354 4 21 190 234 244 240 240 232 234 243 243 237 234 236 243 241 239 238 239 242 237 233 240 241 239 242 243 244 247 249 251 255 257 257 258 261 265 267 267 267 268
232 236 239 243 250 259 270 281 287 288 286 285 285 283 283 287 289 288 279 258 246 248 258 264 255 248 264 292 280 285 306 344 349 322 334 354 117 159 195 226 226 233 335 1 2 6 355 245 242 239 238 226 227 241 247 239 236 237 242 245 244 243 243 245 242 239 244 246 244 245 247 250 254 256 257 258 259 259 258 258 262 268 270 270 269
228 232 237 243 251 258 265 273 278 279 279 279 279 279 285 292 293 287 273 255 247 253 263 261 253 252 261 274 270 268 279 308 315 265 89 63 64 80 121 216 211 252 339 343 346 343 329 298 249 240 241 240 242 248 249 241 242 244 243 246 247 248 249 246 244 243 245 248 247 249 251 252 254 257 260 261 263 263 260 257 255 257 262 264 266
227 231 239 246 253 258 262 268 272 274 273 273 275 277 286 293 291 281 264 252 251 257 265 266 260 257 257 261 264 261 261 278 277 216 161 100 72 66 85 125 155 206 333 342 342 335 320 300 250 241 242 248 257 258 262 262 258 256 253 255 254 254 254 250 245 246 247 249 250 252 253 252 254 256 259 260 263 265 264 264 260 256 257 259 261
229 234 241 246 253 256 259 264 269 272 271 270 273 277 285 289 283 271 259 254 253 258 270 281 279 267 257 255 259 259 259 273 264 204 169 134 86 77 97 101 104 97 18 352 333 322 315 297 250 243 245 245 259 265 274 276 267 266 269 271 268 264 261 256 251 251 254 256 256 257 259 260 261 260 262 265 265 267 268 269 269 266 264 265 264
230 235 240 246 251 254 256 260 266 271 272 270 271 275 282 285 275 263 260 257 257 264 275 283 282 271 260 251 251 254 255 265 246 198 173 147 109 93 96 83 75 65 21 1 338 317 321 311 257 257 264 256 271 280 279 280 280 281 279 279 281 281 274 265 260 259 261 262 261 261 263 266 270 271 271 270 269 269 270 272 273 270 269 270 270
231 236 240 246 250 252 255 259 266 271 272 271 270 275 282 282 272 263 263 262 264 272 277 279 275 267 258 245 243 246 246 249 226 196 187 167 135 114 101 66 26 24 12 4 352 337 340 341 328 316 315 313 322 326 311 301 302 296 288 288 292 294 290 282 275 270 268 270 274 277 277 275 278 281 278 274 273 274 275 276 274 271 270 273 275
232 236 240 243 246 251 256 261 266 270 272 272 272 277 282 281 271 264 265 265 269 274 276 274 267 260 256 243 235 234 232 231 215 201 198 189 165 144 125 34 358 8 2 354 355 355 358 354 348 343 338 345 359 4 353 341 335 327 320 316 310 308 310 309 296 285 282 285 290 294 293 289 286 286 285 283 283 284 285 283 280 275 272 273 275
231 236 240 241 245 250 257 263 267 270 272 272 274 278 282 281 272 268 270 270 272 274 272 264 253 251 253 240 227 219 217 215 208 205 207 210 207 194 203 294 340 3 10 15 23 36 48 43 31 12 344 341 344 347 352 3 359 351 354 359 10 9 352 349 338 316 305 300 297 293 290 288 288 288 290 293 297 297 296 293 286 280 276 277 278
231 235 238 240 243 249 256 263 267 270 270 272 276 277 279 279 271 270 274 276 275 270 265 253 240 243 247 231 217 213 215 209 204 213 221 226 225 207 216 248 222 72 60 61 61 71 74 71 65 51 38 19 357 343 344 357 349 349 359 6 17 19 6 357 347 331 318 308 302 296 292 291 291 291 290 291 295 299 299 293 287 285 285 285 284
233 235 237 239 241 246 253 260 264 267 270 273 275 276 278 277 270 272 277 278 274 260 251 244 235 240 246 238 224 216 224 217 213 225 225 221 215 201 208 220 194 159 114 95 83 86 78 68 64 50 41 31 10 344 337 354 1 7 18 19 18 15 4 353 343 336 328 322 316 311 306 300 298 297 297 298 299 302 300 293 289 289 289 287 285
235 237 237 239 239 242 249 256 261 265 268 271 273 275 278 276 271 274 277 273 267 250 235 234 234 238 246 244 236 229 234 231 228 232 212 201 198 196 205 209 194 173 146 127 102 96 73 57 54 42 39 36 32 33 11 20 32 36 38 31 21 14 9 0 354 349 343 336 327 320 313 306 301 300 299 298 298 299 297 294 291 290 291 290 289
236 238 239 238 238 240 246 251 257 261 266 268 270 274 274 271 270 272 271 263 255 239 225 225 232 240 245 242 241 241 243 240 234 234 214 195 195 201 209 206 195 184 171 162 138 119 78 56 52 45 52 62 72 80 82 75 67 64 59 46 31 18 15 11 5 1 354 347 337 328 321 314 309 305 300 297 293 291 290 289 288 287 286 287 288
237 239 240 239 239 241 246 250 254 259 264 266 267 269 267 264 265 268 267 259 248 235 224 225 231 240 243 238 241 246 245 230 220 223 218 205 207 213 215 209 204 201 191 185 177 163 117 56 58 72 77 84 95 97 91 86 76 71 62 51 40 26 18 13 8 4 354 345 336 329 323 317 311 306 301 298 294 291 288 286 283 281 281 281 281
236 239 241 241 242 244 247 249 252 255 260 263 262 263 262 260 261 263 259 252 246 238 231 232 236 240 240 237 239 245 243 229 218 217 216 219 229 230 224 219 220 226 215 204 201 193 185 117 67 94 98 96 103 104 96 90 78 69 60 50 44 30 15 2 352 343 336 331 326 323 321 318 314 307 301 296 294 293 291 288 285 282 281 280 281
237 239 242 244 244 245 247 249 249 251 255 258 257 258 257 256 257 257 252 245 243 239 236 236 237 237 238 239 240 243 244 238 230 227 228 234 240 239 237 231 231 233 226 218 218 217 216 218 199 119 124 122 125 128 122 111 90 59 40 24 9 357 350 344 338 328 324 321 320 318 317 315 314 309 304 297 293 293 293 292 290 287 285 282 282
238 240 242 244 245 245 246 246 245 247 251 253 253 252 251 251 251 251 246 241 240 238 234 232 233 234 236 241 242 242 243 241 236 235 238 242 243 245 247 239 232 228 225 227 228 229 232 231 234 247 243 228 207 198 203 213 227 268 304 320 322 322 324 329 333 329 322 319 318 316 314 313 311 308 306 301 298 295 295 295 294 292 289 285 281
238 240 241 242 243 243 244 245 244 246 249 250 248 246 245 246 248 249 243 239 241 241 237 234 234 235 237 242 245 243 243 240 239 238 236 236 237 241 243 236 232 231 229 233 235 236 242 243 245 254 259 260 259 254 250 241 237 250 268 275 283 295 302 310 318 320 315 313 312 310 310 308 308 308 306 304 300 297 295 294 295 294 293 290 286
240 241 242 243 243 242 243 244 244 246 248 248 245 242 242 243 246 248 243 238 240 244 243 241 240 239 238 240 244 244 244 244 245 245 242 236 233 233 232 230 233 241 244 244 241 244 251 254 255 257 260 264 268 272 271 259 247 246 254 260 262 270 283 294 305 310 308 308 307 306 305 303 302 303 304 304 302 299 296 293 291 292 291 291 289
242 243 244 245 244 241 242 243 243 245 247 246 244 241 240 241 243 245 242 237 238 242 243 244 244 244 242 242 243 242 242 245 247 248 247 241 235 232 229 230 237 247 254 252 251 254 258 261 261 261 262 266 272 278 281 274 263 259 262 264 261 261 270 283 295 302 302 300 301 301 300 298 296 296 296 299 300 298 296 293 291 291 290 289 287
242 244 244 245 244 241 240 242 242 244 246 245 243 241 239 240 241 242 239 235 236 239 242 244 246 248 248 245 244 242 242 246 250 250 248 244 241 239 236 237 244 253 259 259 260 263 264 267 268 267 266 267 270 275 278 277 272 272 276 275 269 262 265 276 287 295 298 297 298 299 299 297 293 291 290 292 293 294 293 292 291 289 288 286 282
241 242 242 243 243 241 240 241 242 245 247 245 242 240 240 239 240 242 241 238 238 240 242 245 247 250 251 248 246 245 243 248 252 252 249 246 245 244 241 242 248 256 261 264 266 268 271 276 275 272 268 265 265 268 271 272 272 275 279 279 276 275 276 281 288 295 298 299 298 299 298 296 293 290 288 288 288 289 288 287 287 287 286 284 280
239 240 241 242 242 241 240 240 242 245 247 246 242 240 240 240 239 240 241 240 241 241 241 245 248 249 251 250 248 247 246 248 252 254 252 248 246 245 243 245 252 259 262 266 269 271 279 286 282 273 266 262 264 268 271 272 272 274 277 279 283 288 293 296 299 301 301 300 298 296 294 292 290 288 287 286 286 286 286 285 284 284 284 282 280
238 238 238 239 241 241 241 241 243 245 246 246 243 242 241 240 240 239 240 240 241 242 241 243 247 249 250 251 250 250 249 250 252 254 253 250 249 250 249 249 255 260 263 266 269 274 285 292 288 274 264 263 267 273 275 275 275 277 280 286 293 300 303 304 303 302 300 298 296 294 292 289 286 285 284 283 283 283 284 284 283 283 282 281 279
239 238 238 238 240 242 243 244 244 245 246 245 243 243 242 242 241 240 239 240 243 244 243 244 246 248 250 251 252 252 252 253 253 254 255 254 254 255 255 254 256 259 263 267 271 278 285 289 286 274 262 261 266 271 273 273 277 281 285 294 302 305 304 303 300 297 295 294 292 290 289 287 286 285 283 281 280 280 280 280 280 279 279 279 277
239 240 239 238 239 241 243 245 246 247 246 245 244 245 245 244 243 241 241 241 243 245 246 245 245 247 249 252 254 254 254 256 257 257 257 257 258 258 258 257 257 260 265 269 274 280 284 286 286 277 266 264 265 265 265 265 270 276 283 294 298 300 303 304 303 299 294 291 290 289 288 288 288 287 285 283 280 278 278 277 276 274 274 275 275
239 240 240 239 239 240 243 245 246 247 247 245 245 246 247 247 246 244 243 242 243 245 247 247 247 247 250 252 254 255 255 256 258 260 260 260 261 262 262 261 261 263 266 270 274 278 282 285 284 279 271 268 266 259 256 257 262 269 277 286 292 300 308 313 314 312 305 298 295 293 290 289 289 290 289 285 281 280 279 278 277 275 273 273 273
239 239 240 240 240 240 242 243 245 246 246 245 245 246 247 249 249 248 247 247 247 247 249 250 251 251 252 253 255 256 256 256 257 260 261 261 261 264 266 266 265 265 265 267 270 274 278 280 279 277 271 265 262 259 256 255 259 269 277 287 301 313 319 322 322 322 317 310 305 302 297 290 287 287 287 283 280 279 278 278 278 278 278 276 273
241 240 240 240 240 240 241 242 243 244 245 244 245 246 247 250 251 251 251 250 250 250 251 253 255 257 257 256 256 257 258 257 256 257 259 262 264 265 268 269 269 268 266 267 268 270 273 275 275 275 271 264 259 258 257 257 263 274 286 302 314 320 324 326 325 324 321 315 310 308 303 293 284 282 282 280 278 276 275 274 275 277 278 278 276
243 240 239 239 240 240 241 241 242 243 243 244 245 246 247 250 252 253 253 253 252 252 253 255 257 260 262 263 263 261 260 258 257 257 258 261 264 266 268 270 271 270 268 268 269 269 271 274 275 274 270 264 260 258 258 262 270 280 293 307 314 318 323 325 324 322 320 315 311 308 304 294 282 278 278 278 278 277 276 276 277 279 280 279 277
243 241 239 239 239 240 240 241 242 243 243 244 245 245 247 250 251 253 254 254 254 254 254 256 258 260 264 267 268 268 265 262 259 259 259 259 261 263 266 269 270 270 269 269 270 272 276 280 279 275 271 267 262 259 259 265 275 284 291 300 306 312 318 321 321 320 318 314 310 307 304 294 284 279 278 278 279 280 281 283 285 286 286 284 281
242 240 239 238 239 240 240 241 242 242 243 243 244 245 246 248 250 252 254 255 256 256 257 258 259 261 263 267 269 271 271 268 264 261 260 259 259 260 262 265 267 267 267 268 268 271 277 280 281 278 275 272 266 263 264 269 274 282 291 300 303 308 314 316 318 319 317 313 309 306 304 297 289 285 283 282 282 282 283 284 285 287 287 288 288
240 239 238 238 238 239 240 241 241 242 243 243 244 244 245 247 249 251 253 256 257 257 258 259 261 263 265 267 269 271 273 273 271 267 263 260 260 260 259 260 262 263 265 266 266 267 271 274 276 275 273 272 268 266 268 270 276 285 295 300 301 305 310 312 314 317 315 311 308 306 305 300 294 291 290 290 292 291 288 286 286 287 288 290 291
239 238 237 237 238 239 240 240 241 242 242 243 243 243 244 246 248 251 253 256 258 259 260 260 262 265 267 269 270 272 273 273 274 272 269 265 261 258 257 256 256 259 262 264 263 262 265 269 271 271 271 271 272 274 275 278 283 288 290 292 295 300 305 307 312 316 313 307 304 303 303 302 298 296 295 296 298 297 294 292 292 292 294 294 293
238 237 237 236 236 238 239 239 241 241 242 242 243 243 244 245 247 251 254 257 259 261 262 263 265 268 270 272 273 274 273 272 273 273 272 270 264 258 255 252 250 253 258 260 260 258 260 265 268 269 270 274 278 281 281 281 281 281 284 290 294 297 302 304 309 313 310 304 302 300 301 304 303 304 304 303 302 300 296 294 295 297 298 298 296
237 237 236 235 235 236 237 238 240 241 242 242 243 243 244 244 246 249 253 257 260 262 265 267 269 271 274 275 276 276 274 272 271 271 272 270 265 257 252 249 247 248 252 254 256 257 259 263 266 269 272 277 281 278 274 274 276 282 292 296 296 297 302 304 306 309 308 305 304 303 304 307 308 309 310 309 306 302 299 298 298 299 299 298 297
236 236 235 234 234 235 237 238 239 241 242 243 243 244 243 244 246 248 252 257 260 263 265 268 271 274 274 272 271 273 275 274 273 273 272 270 265 256 251 248 247 246 248 251 254 257 259 261 264 267 270 273 275 275 274 276 280 287 294 294 295 297 298 299 300 303 304 303 302 302 304 308 310 308 309 310 307 304 302 303 302 301 299 298 298
235 235 234 234 234 235 236 237 239 240 242 243 243 244 244 244 245 247 251 256 259 262 263 265 267 264 258 257 260 267 272 275 278 279 273 270 268 259 250 248 247 245 245 246 249 252 254 258 261 265 271 275 276 278 283 284 284 286 289 290 294 295 293 293 296 298 298 298 299 299 302 308 311 308 307 310 309 307 306 306 304 302 301 301 301
234 234 234 233 233 234 235 237 239 241 242 243 243 243 244 244 245 246 249 252 256 258 257 255 250 245 248 255 261 267 271 275 280 280 272 269 269 261 251 248 246 244 243 243 244 248 252 258 265 274 281 283 283 283 285 283 280 280 284 288 290 290 290 292 293 293 294 296 298 300 302 309 313 308 308 310 309 308 308 307 305 304 303 304 304
234 234 234 234 233 234 235 237 239 241 242 242 243 244 244 245 245 245 246 249 252 252 251 248 244 245 254 263 267 269 270 273 277 273 264 265 268 262 255 251 248 244 243 242 244 249 256 263 273 284 288 286 285 283 280 278 276 278 283 287 288 288 290 290 290 292 294 297 300 302 304 311 315 310 309 311 309 307 308 308 308 308 308 308 306
237 236 236 236 235 235 235 236 238 240 241 242 243 243 244 245 244 243 243 245 246 247 250 252 250 251 257 262 267 269 269 271 274 267 252 256 261 257 253 252 249 244 240 240 244 251 260 271 279 285 287 285 283 278 273 272 275 280 283 285 287 289 289 290 292 294 298 301 304 305 307 312 316 313 312 313 310 309 310 310 311 312 311 309 305
238 238 238 238 238 237 237 237 238 239 240 241 242 242 243 243 242 240 241 240 238 241 249 253 253 256 259 261 264 265 265 268 270 259 245 249 250 247 247 247 244 240 237 239 245 253 264 274 280 284 285 282 278 272 269 272 276 280 282 284 289 291 291 293 295 298 301 305 308 309 311 315 319 317 315 314 312 311 313 314 314 314 312 310 307
240 241 241 241 240 240 239 238 238 240 240 240 241 241 242 242 241 240 239 235 232 237 245 249 252 257 259 259 259 257 257 263 263 249 243 246 242 239 241 241 238 235 234 238 247 257 267 272 276 281 282 279 276 275 275 278 280 281 284 287 290 290 290 292 294 297 302 307 312 314 315 319 321 319 318 316 314 314 316 316 316 315 314 313 311
242 243 243 243 243 242 241 241 240 241 241 241 241 242 242 242 241 239 236 233 231 234 240 245 250 255 255 253 251 248 249 256 257 248 242 239 235 233 232 232 232 230 230 240 252 261 267 268 268 271 275 276 278 281 281 280 280 283 286 288 287 286 286 289 293 297 302 309 317 318 317 319 320 319 319 318 315 315 317 317 316 315 315 314 313
Height
1583 1584 1585 1585 1586 1586 1586 1587 1587 1587 1587 1587 1587 1587 1587 1587 1587 1587 1587 1587 1587 1586 1586 1586 1586 1586 1587 1587 1587 1587 1587 1587 1587 1587 1587 1587 1587 1587 1588 1588 1587 1587 1588 1588 1588 1588 1588 1588 1589 1590 1590 1591 1591 1592 1592 1593 1593 1594 1594 1594 1594 1595 1595 1596 1596 1597 1597 1598 1598 1599 1600 1600 1600 1601 1601 1601 1602 1602 1603 1603 1603 1604 1604 1604 1605
1583 1583 1584 1585 1586 1586 1586 1587 1587 1587 1587 1587 1587 1587 1587 1587 1586 1586 1586 1586 1586 1586 1586 1586 1586 1586 1586 1587 1587 1587 1587 1587 1587 1588 1588 1588 1588 1588 1588 1588 1588 1587 1587 1588 1588 1588 1587 1587 1589 1589 1590 1590 1591 1592 1592 1592 1593 1594 1594 1594 1594 1595 1595 1596 1596 1597 1597 1598 1598 1599 1599 1600 1600 1601 1601 1601 1601 1602 1602 1603 1603 1604 1604 1604 1605
1582 1583 1584 1585 1585 1586 1586 1586 1586 1586 1586 1587 1586 1586 1586 1586 1586 1586 1586 1585 1585 1585 1585 1585 1586 1586 1586 1587 1587 1587 1587 1587 1587 1588 1588 1588 1588 1588 1588 1588 1588 1587 1587 1587 1587 1587 1587 1587 1588 1589 1589 1590 1591 1591 1591 1592 1593 1593 1593 1594 1594 1594 1595 1595 1596 1596 1597 1597 1598 1598 1599 1599 1600 1601 1601 1601 1602 1602 1602 1602 1603 1603 1604 1604 1604
1582 1583 1583 1584 1585 1585 1585 1586 1586 1586 1586 1586 1586 1586 1586 1586 1586 1585 1585 1585 1585 1584 1585 1585 1586 1586 1586 1586 1587 1587 1587 1587 1587 1588 1588 1588 1588 1588 1588 1588 1588 1587 1587 1587 1587 1587 1586 1587 1588 1588 1588 1589 1590 1590 1591 1592 1592 1592 1593 1593 1593 1594 1594 1595 1595 1596 1596 1597 1597 1597 1598 1599 1599 1600 1600 1601 1601 1602 1602 1602 1603 1603 1603 1604 1604
1581 1582 1583 1584 1584 1584 1585 1585 1585 1585 1585 1585 1585 1585 1585 1585 1585 1585 1585 1584 1584 1584 1585 1585 1586 1586 1586 1586 1586 1586 1586 1587 1587 1587 1587 1587 1587 1588 1588 1588 1587 1587 1587 1587 1587 1586 1586 1587 1587 1587 1587 1589 1590 1590 1590 1591 1592 1592 1592 1593 1593 1593 1594 1595 1595 1596 1596 1596 1596 1597 1597 1598 1598 1599 1600 1600 1601 1601 1601 1602 1602 1603 1603 1603 1603
1581 1582 1582 1583 1583 1584 1584 1584 1585 1585 1585 1585 1585 1585 1585 1585 1584 1584 1584 1584 1584 1584 1585 1585 1586 1586 1586 1586 1586 1586 1586 1586 1586 1587 1587 1587 1587 1587 1587 1587 1587 1587 1587 1587 1587 1586 1586 1586 1587 1587 1587 1588 1589 1590 1590 1590 1591 1591 1591 1592 1593 1593 1594 1594 1595 1595 1595 1595 1596 1596 1596 1597 1597 1598 1598 1599 1600 1600 1601 1601 1602 1602 1602 1603 1603
1580 1581 1582 1582 1583 1583 1583 1584 1584 1584 1584 1584 1584 1584 1584 1584 1584 1584 1584 1584 1584 1584 1585 1585 1585 1586 1586 1586 1586 1586 1586 1586 1586 1586 1586 1586 1586 1587 1587 1587 1587 1587 1587 1587 1586 1586 1586 1586 1586 1586 1587 1588 1588 1589 1589 1590 1591 1591 1591 1592 1592 1592 1593 1594 1594 1594 1595 1595 1595 1595 1596 1596 1597 1597 1598 1598 1599 1599 1600 1600 1601 1601 1602 1602 1602
1579 1580 1581 1582 1582 1582 1583 1583 1583 1583 1584 1584 1584 1584 1584 1584 1583 1583 1583 1583 1584 1584 1584 1585 1585 1585 1585 1586 1586 1586 1585 1585 1585 1586 1586 1586 1586 1586 1587 1587 1587 1587 1587 1587 1586 1586 1586 1586 1586 1586 1586 1587 1588 1588 1588 1589 1590 1590 1591 1591 1592 1592 1592 1593 1593 1593 1594 1594 1594 1594 1595 1596 1596 1597 1597 1597 1598 1598 1599 1600 1600 1601 1601 1601 1601
1578 1579 1580 1581 1581 1581 1582 1582 1582 1582 1583 1583 1583 1583 1583 1583 1583 1582 1583 1583 1583 1584 1584 1584 1585 1585 1585 1586 1586 1586 1585 1585 1585 1586 1586 1586 1586 1586 1586 1586 1587 1587 1587 1587 1587 1587 1587 1586 1586 1586 1586 1587 1587 1587 1588 1588 1589 1589 1590 1590 1591 1591 1591 1592 1592 1592 1593 1592 1593 1593 1594 1595 1596 1597 1597 1597 1597 1598 1598 1598 1599 1600 1600 1600 1600
1578 1578 1579 1580 1580 1580 1581 1581 1581 1582 1582 1582 1582 1582 1582 1582 1582 1582 1582 1582 1583 1583 1584 1584 1584 1585 1585 1585 1586 1586 1585 1586 1586 1586 1586 1586 1586 1586 1586 1586 1587 1587 1587 1587 1587 1587 1587 1586 1586 1586 1586 1587 1587 1587 1587 1587 1588 1589 1589 1590 1590 1591 1591 1591 1592 1592 1592 1592 1592 1593 1594 1595 1596 1596 1596 1597 1597 1597 1597 1597 1597 1598 1598 1598 1599
1576 1577 1578 1578 1579 1579 1580 1580 1580 1581 1581 1581 1581 1581 1582 1582 1582 1581 1581 1582 1582 1583 1583 1584 1584 1584 1585 1585 1585 1585 1585 1586 1586 1586 1586 1586 1586 1586 1587 1587 1587 1587 1587 1587 1587 1587 1587 1586 1586 1586 1586 1586 1587 1587 1587 1587 1588 1588 1589 1589 1589 1590 1590 1590 1591 1591 1590 1591 1592 1593 1594 1594 1594 1594 1594 1595 1596 1596 1596 1597 1597 1597 1596 1596 1597
1575 1576 1577 1577 1578 1578 1579 1579 1580 1580 1580 1580 1581 1581 1581 1581 1581 1581 1581 1582 1582 1582 1583 1583 1583 1584 1584 1584 1585 1585 1585 1586 1586 1586 1586 1586 1587 1587 1587 1587 1588 1588 1587 1587 1587 1587 1587 1586 1586 1586 1586 1586 1586 1587 1587 1587 1587 1588 1588 1588 1589 1589 1589 1589 1589 1589 1590 1590 1591 1592 1593 1593 1593 1593 1593 1594 1594 1594 1595 1596 1597 1596 1595 1595 1596
1574 1575 1576 1576 1577 1577 1578 1578 1579 1579 1579 1579 1580 1580 1580 1580 1580 1580 1581 1581 1582 1582 1582 1582 1583 1583 1583 1584 1584 1585 1585 1586 1586 1586 1587 1587 1587 1587 1588 1588 1588 1588 1588 1588 1587 1587 1587 1586 1586 1586 1585 1586 1586 1587 1587 1587 1587 1587 1588 1588 1588 1589 1589 1589 1589 1589 1589 1590 1590 1590 1592 1592 1592 1592 1592 1592 1591 1592 1593 1594 1595 1595 1594 1593 1594
1573 1573 1574 1575 1576 1576 1577 1577 1578 1578 1578 1578 1579 1579 1579 1579 1579 1580 1580 1581 1581 1581 1582 1582 1582 1582 1583 1583 1583 1584 1585 1585 1586 1586 1587 1587 1587 1588 1588 1588 1588 1588 1588 1588 1588 1588 1587 1587 1587 1586 1586 1587 1587 1587 1587 1587 1587 1587 1587 1588 1588 1588 1588 1588 1588 1588 1588 1589 1589 1589 1590 1591 1590 1591 1591 1590 1590 1590 1592 1593 1593 1592 1592 1593 1593
1571 1572 1573 1574 1574 1575 1576 1576 1577 1577 1577 1577 1578 1578 1578 1578 1579 1579 1580 1580 1581 1581 1581 1581 1582 1582 1582 1582 1583 1583 1584 1585 1585 1586 1587 1587 1588 1588 1588 1588 1588 1589 1588 1588 1588 1588 1588 1588 1587 1587 1587 1587 1587 1587 1587 1587 1587 1587 1587 1587 1588 1588 1587 1587 1587 1587 1587 1588 1588 1588 1589 1589 1589 1589 1589 1589 1589 1589 1590 1591 1591 1591 1591 1591 1592
1570 1571 1572 1573 1573 1574 1575 1575 1576 1576 1576 1576 1576 1577 1577 1578 1578 1579 1579 1580 1580 1580 1580 1581 1581 1582 1582 1582 1583 1583 1584 1585 1585 1586 1587 1587 1588 1588 1588 1589 1589 1589 1589 1589 1589 1588 1588 1588 1588 1588 1587 1587 1587 1587 1587 1587 1587 1587 1587 1587 1587 1587 1587 1587 1587 1587 1587 1587 1587 1588 1588 1588 1588 1588 1588 1588 1588 1588 1589 1589 1590 1590 1590 1590 1590
1568 1569 1570 1571 1572 1573 1574 1574 1574 1575 1575 1575 1576 1576 1577 1577 1577 1578 1579 1579 1579 1580 1580 1580 1581 1581 1582 1582 1582 1583 1583 1584 1585 1586 1586 1587 1588 1588 1588 1589 1589 1589 1589 1589 1589 1589 1589 1588 1588 1588 1588 1587 1587 1587 1587 1587 1587 1587 1587 1587 1587 1587 1587 1587 1587 1587 1587 1587 1587 1588 1588 1588 1587 1587 1588 1588 1587 1587 1588 1588 1589 1589 1588 1589 1589
1566 1568 1569 1570 1571 1571 1572 1573 1573 1574 1574 1574 1575 1575 1576 1576 1577 1577 1578 1578 1578 1578 1579 1580 1580 1581 1581 1581 1582 1583 1583 1584 1585 1585 1586 1586 1587 1588 1588 1589 1589 1589 1589 1589 1589 1589 1589 1589 1589 1589 1588 1588 1588 1587 1587 1587 1587 1587 1587 1587 1587 1587 1587 1587 1588 1588 1588 1588 1588 1587 1587 1587 1587 1587 1587 1587 1587 1587 1587 1587 1588 1588 1588 1588 1587
1565 1566 1567 1568 1569 1570 1571 1572 1572 1573 1573 1573 1574 1575 1575 1575 1576 1576 1577 1577 1577 1577 1578 1579 1580 1580 1580 1581 1581 1582 1583 1583 1584 1584 1585 1585 1586 1587 1588 1588 1589 1589 1589 1589 1589 1590 1590 1590 1589 1589 1589 1589 1588 1588 1588 1587 1588 1588 1587 1587 1587 1587 1587 1587 1587 1587 1587 1587 1587 1587 1587 1587 1586 1586 1586 1586 1586 1586 1586 1587 1587 1587 1587 1586 1586
1564 1565 1566 1567 1568 1569 1569 1570 1571 1571 1572 1572 1573 1574 1574 1575 1575 1575 1576 1576 1576 1576 1577 1578 1579 1579 1580 1580 1581 1581 1582 1583 1583 1584 1584 1585 1586 1587 1587 1588 1588 1589 1589 1589 1589 1590 1590 1590 1590 1589 1589 1589 1589 1588 1588 1588 1588 1588 1588 1588 1587 1587 1587 1587 1587 1587 1587 1586 1586 1586 1586 1586 1586 1585 1585 1585 1585 1585 1586 1586 1586 1586 1585 1585 1585
1562 1563 1564 1565 1566 1567 1568 1569 1569 1570 1571 1571 1572 1573 1574 1574 1574 1575 1575 1575 1575 1575 1576 1577 1578 1579 1579 1580 1580 1581 1582 1582 1583 1584 1584 1585 1585 1586 1587 1587 1588 1588 1588 1589 1589 1589 1590 1590 1590 1589 1589 1589 1589 1589 1589 1589 1589 1588 1588 1588 1588 1587 1587 1587 1586 1586 1586 1586 1586 1586 1585 1585 1585 1585 1585 1585 1584 1585 1585 1585 1585 1584 1584 1584 1584
1560 1561 1563 1564 1565 1566 1566 1567 1568 1569 1569 1570 1571 1572 1573 1573 1573 1574 1574 1574 1574 1575 1576 1577 1578 1578 1579 1579 1580 1580 1581 1582 1582 1583 1584 1585 1585 1586 1586 1587 1588 1588 1588 1588 1589 1589 1589 1590 1590 1589 1589 1589 1589 1589 1589 1589 1589 1589 1588 1588 1588 1587 1587 1587 1586 1586 1586 1585 1585 1585 1585 1585 1584 1584 1584 1584 1584 1584 1584 1583 1583 1583 1583 1583 1582
1559 1560 1561 1562 1563 1564 1564 1565 1566 1567 1568 1569 1570 1571 1572 1572 1572 1573 1573 1573 1573 1574 1575 1576 1576 1577 1578 1578 1579 1580 1580 1581 1582 1583 1583 1584 1584 1585 1586 1586 1587 1587 1588 1588 1588 1589 1589 1589 1589 1589 1589 1589 1589 1589 1589 1589 1589 1588 1588 1588 1588 1587 1587 1587 1586 1586 1585 1585 1585 1584 1584 1584 1583 1583 1583 1583 1583 1583 1583 1582 1582 1582 1582 1582 1581
1556 1557 1559 1560 1561 1562 1563 1563 1565 1566 1566 1567 1569 1570 1570 1571 1571 1571 1572 1572 1573 1573 1574 1575 1575 1576 1577 1578 1578 1579 1580 1581 1581 1582 1583 1583 1584 1584 1585 1585 1586 1586 1587 1587 1587 1588 1588 1588 1588 1588 1588 1588 1588 1588 1588 1588 1588 1588 1588 1587 1587 1587 1587 1586 1586 1585 1585 1584 1584 1584 1583 1583 1582 1582 1582 1582 1582 1581 1581 1581 1581 1581 1580 1580 1580
1554 1555 1556 1558 1559 1560 1561 1562 1563 1564 1565 1566 1567 1568 1569 1569 1569 1570 1570 1571 1572 1572 1573 1574 1574 1575 1576 1577 1577 1578 1579 1579 1580 1581 1581 1582 1582 1583 1583 1584 1585 1585 1585 1586 1586 1586 1587 1587 1587 1587 1587 1587 1587 1587 1587 1587 1586 1586 1586 1586 1586 1586 1586 1585 1585 1585 1584 1584 1584 1583 1583 1582 1582 1581 1581 1581 1580 1580 1580 1580 1579 1579 1579 1578 1578
1551 1553 1554 1556 1557 1558 1559 1560 1562 1563 1564 1565 1566 1566 1567 1567 1568 1568 1569 1570 1570 1571 1572 1572 1573 1574 1574 1575 1576 1577 1578 1578 1579 1579 1580 1580 1581 1581 1582 1582 1583 1584 1584 1584 1585 1585 1585 1585 1585 1585 1585 1585 1585 1585 1585 1585 1585 1585 1585 1585 1585 1585 1584 1584 1584 1584 1584 1583 1583 1582 1582 1581 1581 1580 1580 1579 1579 1579 1578 1578 1578 1577 1577 1576 1576
1549 1551 1553 1554 1555 1556 1558 1559 1560 1562 1563 1563 1564 1565 1565 1566 1566 1567 1567 1568 1569 1569 1570 1571 1572 1573 1573 1574 1575 1576 1577 1577 1578 1578 1579 1579 1580 1580 1580 1581 1582 1582 1582 1583 1583 1583 1584 1584 1584 1584 1584 1584 1584 1584 1584 1584 1584 1584 1583 1583 1583 1583 1583 1583 1583 1583 1582 1582 1582 1581 1581 1580 1580 1579 1579 1578 1578 1577 1577 1577 1576 1576 1575 1575 1574
1546 1548 1550 1552 1553 1555 1556 1557 1558 1560 1561 1561 1562 1563 1563 1564 1564 1565 1566 1566 1567 1568 1569 1570 1571 1572 1572 1573 1574 1575 1576 1576 1577 1577 1578 1578 1579 1579 1579 1580 1580 1581 1581 1581 1581 1582 1582 1582 1582 1582 1582 1582 1582 1582 1582 1582 1582 1582 1582 1582 1582 1582 1582 1582 1582 1581 1581 1581 1580 1580 1579 1579 1578 1578 1577 1577 1576 1576 1575 1575 1574 1574 1574 1573 1572
1544 1546 1548 1549 1551 1552 1554 1555 1557 1558 1559 1559 1560 1561 1561 1562 1562 1563 1564 1565 1566 1567 1568 1568 1569 1571 1571 1572 1572 1573 1575 1575 1576 1576 1577 1577 1578 1578 1578 1579 1579 1579 1579 1580 1580 1580 1581 1581 1581 1580 1580 1581 1580 1581 1581 1581 1581 1581 1581 1581 1581 1581 1581 1581 1580 1579 1579 1578 1578 1577 1577 1576 1576 1576 1575 1575 1574 1574 1573 1573 1572 1572 1572 1571 1571
1541 1543 1545 1547 1548 1550 1551 1553 1554 1556 1557 1557 1558 1559 1559 1560 1561 1562 1563 1563 1564 1565 1566 1567 1568 1569 1570 1570 1571 1572 1573 1574 1574 1575 1575 1576 1576 1577 1577 1578 1578 1578 1578 1578 1578 1579 1579 1579 1579 1579 1579 1579 1579 1579 1579 1579 1579 1579 1579 1579 1579 1579 1579 1578 1577 1577 1576 1575 1575 1574 1574 1573 1573 1573 1572 1572 1572 1571 1571 1570 1570 1570 1569 1569 1569
1538 1540 1542 1544 1546 1547 1549 1550 1552 1553 1554 1555 1556 1556 1557 1558 1559 1560 1561 1561 1562 1563 1564 1565 1566 1567 1568 1569 1569 1570 1571 1572 1573 1573 1574 1575 1575 1576 1576 1577 1577 1577 1577 1577 1577 1577 1577 1577 1577 1577 1577 1577 1577 1578 1578 1578 1578 1578 1578 1578 1577 1577 1576 1576 1575 1574 1573 1572 1572 1571 1570 1570 1570 1570 1570 1569 1569 1569 1568 1568 1567 1567 1567 1567 1566
1535 1537 1539 1541 1543 1544 1546 1548 1549 1550 1551 1552 1553 1554 1555 1555 1556 1558 1558 1559 1560 1561 1562 1563 1564 1565 1566 1567 1567 1569 1570 1570 1571 1572 1572 1573 1574 1574 1575 1575 1576 1576 1576 1576 1576 1576 1576 1576 1576 1576 1576 1576 1576 1577 1577 1577 1577 1577 1577 1576 1576 1575 1574 1574 1573 1572 1571 1570 1569 1568 1568 1567 1566 1566 1566 1566 1566 1566 1566 1565 1565 1565 1564 1564 1564
1532 1534 1536 1538 1540 1542 1543 1544 1546 1547 1548 1550 1551 1551 1552 1553 1554 1555 1556 1557 1558 1559 1560 1561 1562 1563 1564 1565 1566 1567 1568 1569 1569 1570 1571 1571 1572 1573 1574 1574 1575 1575 1575 1575 1575 1574 1575 1575 1575 1575 1575 1575 1576 1576 1576 1576 1576 1576 1576 1575 1575 1574 1573 1572 1571 1570 1569 1568 1567 1566 1565 1564 1564 1563 1563 1563 1563 1563 1563 1562 1562 1562 1562 1561 1561
1529 1531 1533 1535 1537 1538 1540 1541 1542 1544 1545 1546 1548 1549 1549 1550 1552 1553 1554 1555 1556 1557 1558 1559 1560 1561 1562 1563 1564 1565 1566 1567 1567 1568 1569 1570 1570 1571 1571 1572 1573 1573 1573 1573 1573 1573 1573 1573 1574 1574 1574 1574 1574 1575 1575 1575 1575 1574 1574 1574 1574 1573 1573 1572 1571 1570 1569 1567 1566 1565 1564 1563 1562 1561 1560 1560 1560 1560 1560 1560 1559 1559 1559 1559 1559
1525 1527 1530 1532 1533 1535 1536 1537 1539 1540 1542 1543 1544 1545 1546 1548 1549 1550 1552 1553 1554 1555 1556 1557 1558 1559 1560 1561 1562 1563 1564 1565 1565 1566 1567 1568 1568 1569 1569 1570 1570 1571 1571 1571 1571 1571 1571 1572 1572 1573 1573 1573 1573 1573 1573 1573 1573 1573 1572 1572 1572 1572 1571 1570 1569 1569 1568 1566 1565 1563 1562 1561 1560 1559 1559 1558 1557 1557 1557 1557 1557 1557 1556 1556 1556
1521 1523 1526 1528 1529 1530 1532 1533 1535 1536 1538 1539 1541 1542 1543 1545 1546 1548 1550 1551 1552 1553 1554 1555 1556 1557 1558 1559 1560 1561 1562 1563 1564 1564 1565 1565 1566 1566 1567 1567 1568 1568 1569 1569 1569 1570 1570 1570 1571 1571 1571 1571 1571 1571 1571 1571 1571 1571 1571 1571 1570 1570 1569 1568 1567 1566 1565 1564 1563 1562 1560 1559 1558 1557 1557 1556 1556 1555 1555 1554 1554 1554 1553 1553 1553
1517 1519 1521 1523 1525 1526 1527 1529 1531 1532 1533 1535 1537 1538 1540 1542 1544 1545 1547 1549 1550 1551 1552 1552 1553 1554 1555 1557 1558 1559 1560 1561 1561 1562 1562 1563 1563 1564 1564 1565 1565 1566 1567 1567 1567 1568 1568 1568 1569 1569 1569 1569 1570 1570 1570 1569 1570 1570 1569 1569 1568 1567 1566 1565 1564 1563 1563 1562 1561 1560 1558 1557 1556 1555 1555 1554 1553 1553 1552 1552 1552 1551 1551 1550 1550
1513 1514 1516 1518 1520 1521 1523 1525 1526 1528 1529 1531 1532 1534 1537 1538 1540 1542 1544 1545 1547 1548 1549 1550 1551 1551 1552 1554 1555 1556 1557 1558 1559 1559 1560 1560 1561 1561 1561 1562 1563 1564 1564 1564 1565 1565 1566 1566 1567 1567 1567 1568 1568 1568 1568 1568 1568 1568 1567 1566 1565 1564 1563 1562 1561 1560 1560 1559 1558 1557 1556 1555 1554 1553 1552 1552 1551 1551 1550 1549 1549 1548 1547 1546 1546
1508 1510 1511 1513 1516 1517 1519 1521 1522 1523 1525 1526 1528 1530 1532 1534 1536 1539 1540 1542 1543 1545 1546 1546 1547 1548 1549 1551 1552 1553 1553 1554 1555 1556 1557 1557 1558 1558 1559 1559 1560 1561 1561 1562 1563 1563 1564 1564 1564 1564 1565 1566 1566 1566 1566 1566 1566 1565 1564 1563 1562 1562 1562 1561 1559 1558 1557 1557 1556 1555 1554 1553 1552 1551 1550 1550 1549 1548 1548 1547 1546 1545 1544 1543 1542
1503 1505 1506 1509 1511 1513 1515 1516 1517 1519 1520 1521 1523 1525 1528 1530 1532 1534 1537 1539 1540 1541 1542 1543 1544 1545 1547 1548 1549 1549 1550 1550 1551 1552 1553 1554 1554 1555 1555 1556 1557 1558 1558 1559 1560 1561 1562 1562 1562 1562 1562 1563 1563 1564 1564 1564 1564 1563 1563 1562 1560 1560 1560 1559 1558 1557 1555 1554 1554 1553 1553 1551 1550 1549 1548 1548 1547 1546 1544 1544 1544 1543 1542 1540 1539
1498 1500 1502 1505 1507 1508 1509 1511 1513 1514 1515 1516 1517 1520 1523 1525 1528 1531 1533 1535 1536 1537 1538 1539 1541 1543 1544 1545 1545 1546 1546 1547 1548 1548 1549 1550 1551 1551 1552 1553 1554 1555 1556 1557 1557 1558 1559 1559 1559 1560 1560 1560 1561 1561 1561 1561 1561 1560 1560 1560 1559 1558 1557 1555 1555 1555 1553 1551 1551 1551 1551 1549 1548 1547 1546 1546 1545 1543 1542 1541 1541 1540 1539 1538 1537
1493 1495 1498 1500 1501 1503 1504 1506 1507 1508 1509 1511 1513 1516 1519 1521 1524 1527 1529 1531 1532 1533 1534 1536 1538 1540 1541 1542 1542 1542 1543 1544 1545 1545 1546 1547 1547 1548 1549 1550 1551 1552 1553 1554 1554 1555 1556 1556 1556 1557 1558 1558 1558 1559 1559 1558 1557 1557 1557 1558 1556 1556 1554 1552 1551 1552 1550 1549 1548 1548 1548 1547 1545 1544 1543 1543 1542 1541 1540 1539 1538 1537 1536 1535 1534
1488 1490 1492 1494 1495 1497 1499 1500 1502 1503 1504 1506 1509 1512 1515 1517 1520 1523 1525 1527 1528 1529 1531 1533 1536 1537 1538 1538 1538 1538 1538 1540 1542 1544 1544 1545 1544 1545 1546 1546 1547 1549 1550 1551 1551 1552 1553 1553 1554 1555 1556 1556 1556 1556 1555 1554 1554 1554 1556 1556 1554 1552 1551 1549 1547 1548 1548 1546 1545 1544 1544 1545 1542 1540 1540 1540 1539 1538 1537 1536 1535 1534 1533 1531 1530
1483 1485 1486 1488 1490 1492 1493 1495 1496 1497 1499 1502 1505 1508 1510 1513 1516 1519 1522 1523 1524 1525 1527 1530 1532 1534 1534 1533 1533 1534 1534 1536 1541 1543 1543 1543 1542 1542 1543 1543 1544 1545 1546 1547 1548 1549 1550 1551 1551 1552 1553 1554 1554 1553 1553 1552 1552 1552 1553 1552 1551 1549 1548 1546 1545 1546 1546 1544 1543 1540 1540 1541 1540 1538 1537 1537 1536 1535 1534 1533 1532 1531 1529 1528 1526
1478 1479 1480 1482 1484 1486 1487 1489 1491 1492 1495 1498 1501 1503 1506 1509 1512 1515 1518 1518 1519 1520 1523 1525 1527 1527 1525 1524 1526 1529 1530 1533 1539 1542 1542 1542 1541 1540 1540 1541 1541 1542 1543 1544 1545 1546 1547 1548 1548 1550 1551 1551 1551 1551 1551 1550 1549 1549 1549 1548 1547 1546 1544 1544 1544 1544 1543 1542 1540 1538 1536 1537 1537 1535 1534 1534 1533 1532 1531 1530 1529 1527 1525 1524 1522
1472 1473 1475 1477 1478 1480 1482 1484 1486 1487 1489 1492 1495 1498 1501 1505 1508 1511 1513 1513 1513 1515 1517 1518 1519 1518 1517 1519 1522 1525 1527 1530 1534 1537 1538 1539 1539 1538 1538 1538 1538 1539 1539 1540 1542 1543 1544 1545 1545 1547 1548 1548 1548 1548 1548 1547 1546 1546 1545 1544 1544 1543 1542 1541 1541 1541 1541 1540 1538 1535 1533 1534 1534 1532 1531 1531 1530 1528 1527 1526 1525 1523 1521 1519 1518
1466 1468 1470 1471 1473 1474 1476 1479 1481 1482 1484 1487 1490 1493 1496 1500 1504 1507 1507 1507 1508 1510 1511 1512 1512 1512 1514 1517 1520 1522 1523 1525 1529 1531 1532 1534 1535 1535 1535 1535 1535 1536 1536 1538 1539 1540 1541 1542 1542 1543 1543 1543 1544 1544 1544 1543 1543 1542 1542 1541 1540 1540 1539 1539 1539 1539 1538 1537 1536 1533 1531 1531 1531 1529 1527 1527 1526 1524 1524 1522 1520 1519 1517 1515 1514
1463 1464 1466 1467 1468 1470 1472 1474 1475 1476 1478 1481 1484 1488 1492 1495 1499 1501 1501 1502 1504 1505 1506 1506 1508 1509 1510 1513 1516 1517 1519 1521 1525 1526 1527 1529 1531 1531 1531 1531 1532 1533 1533 1535 1537 1538 1539 1539 1540 1540 1539 1539 1540 1541 1540 1540 1540 1540 1539 1538 1538 1538 1537 1537 1536 1536 1535 1534 1533 1531 1529 1528 1528 1526 1524 1523 1522 1520 1520 1519 1517 1515 1514 1512 1511
1459 1460 1462 1463 1465 1466 1468 1469 1469 1470 1473 1476 1479 1483 1487 1490 1493 1495 1496 1499 1500 1501 1501 1502 1503 1505 1507 1509 1511 1513 1515 1517 1520 1522 1523 1525 1526 1527 1527 1528 1529 1530 1530 1532 1534 1536 1537 1537 1537 1537 1536 1536 1537 1537 1538 1537 1537 1537 1537 1536 1536 1535 1534 1534 1533 1532 1532 1532 1531 1529 1527 1526 1525 1523 1520 1519 1518 1517 1516 1515 1514 1513 1511 1510 1509
1455 1457 1459 1461 1462 1462 1463 1464 1464 1466 1469 1472 1475 1479 1482 1484 1487 1490 1493 1495 1496 1497 1497 1499 1500 1502 1504 1506 1507 1509 1510 1513 1516 1518 1519 1521 1522 1522 1524 1525 1526 1527 1528 1530 1532 1534 1534 1534 1534 1534 1533 1533 1534 1534 1534 1534 1534 1534 1534 1534 1534 1533 1532 1531 1530 1530 1530 1529 1529 1527 1525 1523 1522 1520 1517 1515 1514 1513 1513 1512 1510 1510 1509 1507 1506
1451 1454 1456 1457 1458 1458 1458 1460 1461 1463 1465 1468 1471 1474 1476 1479 1482 1486 1489 1490 1491 1493 1494 1495 1497 1499 1500 1502 1503 1505 1507 1509 1512 1514 1515 1517 1518 1519 1521 1522 1523 1525 1526 1528 1530 1531 1531 1531 1531 1531 1531 1531 1531 1532 1532 1532 1532 1532 1532 1532 1531 1530 1530 1529 1528 1528 1527 1527 1527 1525 1523 1521 1520 1518 1516 1513 1510 1508 1509 1508 1507 1506 1506 1504 1503